Flag for Canada Weather past 2 weeks in Kamloops, British Columbia, Canada

Now
77 °F

Passing clouds.


Feels Like: 79 °F
Forecast: 63 / 93 °F
Wind: 8 mph from East

Location: Kamloops

Current Time: Jul 2, 2015 at 11:45:04 PM

Latest Report: Jul 2, 2015 at 11:00 PM


Visibility: 40 mi

Pressure: 29.86 "Hg

Humidity: 47%

Dew point: 55 °F

Location of KamloopsLocation

Historic Weather in Kamloops — Graph

°F

Kamloops temperature yesterday

Maximum temperature yesterday: 86 °F (at 4:00 PM)
Minimum temperature yesterday: 64 °F (at 5:00 AM)
Average temperature yesterday: 75 °F

Past Weeks' High & Low Weather Summary

 TemperatureHumidityPressure
High100 °F (Jun 27, 5:00 PM)94% (Jun 30, 12:00 AM)30.16 "Hg (Jun 30, 12:00 AM)
Low48 °F (Jun 21, 1:00 AM)12% (Jun 27, 5:00 PM)29.75 "Hg (Jun 18, 6:00 PM)
Average72 °F49%29.98 "Hg
* Reported Jun 17 10:00 PM — Jul 2 10:00 PM, Kamloops, Weather by CustomWeather, © 2015

Note: Actual official high and low records may vary slightly from our data, if they occured in-between our weather recording intervals... More about our weather records

Advertising

Kamloops weather history for previous 24 hours

 ConditionsComfort  
Time TempWeatherWind HumidityBarometerVisibility
10:00 PM
Thu, Jul 2
81 °FPassing clouds.3 mph42%29.85 "Hg40 mi
9:00 PM82 °FScattered clouds.6 mph40%29.84 "Hg40 mi
8:00 PM91 °FPassing clouds.6 mph24%29.84 "Hg40 mi
7:00 PM95 °FPassing clouds.6 mph18%29.85 "Hg40 mi
6:00 PM95 °FPassing clouds.6 mph18%29.86 "Hg40 mi
5:00 PM95 °FPassing clouds.3 mph14%29.89 "Hg40 mi
4:00 PM93 °FPassing clouds.5 mph23%29.91 "Hg40 mi
3:00 PM93 °FPassing clouds.5 mph20%29.93 "Hg40 mi
2:00 PM91 °FPassing clouds.5 mph24%29.97 "Hg40 mi
1:00 PM86 °FPassing clouds.3 mph33%29.99 "Hg40 mi
12:00 PM82 °FPassing clouds.3 mph40%30.02 "Hg40 mi
11:00 AM79 °FPassing clouds.5 mph42%30.04 "Hg40 mi
10:00 AM75 °FPassing clouds.5 mph47%30.06 "Hg40 mi
9:00 AM72 °FSunny.5 mph57%30.08 "Hg40 mi
8:00 AM70 °FSunny.5 mph60%30.08 "Hg40 mi
7:00 AM66 °FSunny.2 mph73%30.08 "Hg40 mi
6:00 AM64 °FSunny.No wind78%30.08 "Hg40 mi
5:00 AM63 °FClear.3 mph77%30.07 "Hg40 mi
4:00 AM66 °FClear.2 mph68%30.06 "Hg40 mi
3:00 AM64 °FClear.7 mph73%30.05 "Hg40 mi
2:00 AM68 °FClear.2 mph69%30.05 "Hg40 mi
1:00 AM68 °FClear.No wind69%30.04 "Hg40 mi
12:00 AM72 °FClear.2 mph61%30.03 "Hg40 mi
11:00 PM
Wed, Jul 1
72 °FClear.5 mph65%30.03 "Hg40 mi
Weather by CustomWeather, © 2015

See weather overviewHow to use our weather pages